Back to catalog

PSLV DEB

AlivePO
NORAD 34221·DEBRIS·🇮🇳 India

Launched Oct 22, 2001 from Satish Dhawan Space Centre

Loading…

Next Passes (next 24 hours)

TLE

FreshSource: Space-Track

Epoch: Sep 14, 2026, 14:38 UTC

1 34221U 01049PR  26257.61001175  .00001860  00000-0  10608-3 0  9992
2 34221  98.5080 211.9047 0039308 196.2097 163.7877 15.13694570327906

Track PSLV DEB in real time with AllMySat

Download on the App Store